Погода в Парском Угле

Россия / Тамбовская область     53°28′57″N   41°15′50″E
темп.,
°C
ветер,
м/с
пор.,
м/с
влажн.,
%
обл.,
%
осадки,
мм/ч
давл.,
гПа
погр.,
м
10 апреля, сб
сб1000:00+3св226498 0.0 102711
03:00+1всв227486 0.0 102823
06:00+1св337424 0.0 102852
09:00+6св35619 0.0 1028435
12:00+8св44465 0.0 10261126
15:00+10ссв444095 0.0 10261412
18:00+9ссв35482 0.0 1025195
21:00+5в23720 0.0 102641
11 апреля, вс
вс1100:00+3св22780 0.0 102729
03:00+2с358387 0.0 102877
06:00+1ссв3784100 0.0 1029120
09:00+6св476590 0.0 1030373
12:00+10ссв6743100 0.0 1029773
15:00+11св6736100 0.0 1029963
18:00+10св5948100 0.0 1030321
21:00+7св51162100 0.0 1030312
12 апреля, пн
пн1200:00+6св5977100 0.0 1030326
03:00+6св4993100 0.0 1030254
06:00+5св51096100 0.0 1029261
09:00+9всв5882100 0.0 1029361
12:00+14в5664100 0.0 1028533
15:00+18вюв5750100 0.0 1027772
18:00+16в4860100 0.0 1026141
21:00+12вюв41168100 0.0 1027169
13 апреля, вт
вт1300:00+11юв41275100 0.0 1027199
03:00+9юв4108195 0.0 1027150
06:00+8юв410765 0.0 1028154
09:00+13юв6105119 0.0 1027372
12:00+18ююв683752 0.0 1026916
15:00+20ююв672966 0.0 10252004
18:00+17ююв354412 0.0 102593
21:00+13ююв49585 0.0 1026132
14 апреля, ср
ср1400:00+11юв412655 0.0 1026197
03:00+9юв48685 0.0 1025115
06:00+9юв496982 0.0 1025130
09:00+14юв5952100 0.0 1024319
12:00+19юв683451 0.0 10231085
15:00+20юв682994 0.0 10211982
18:00+17юв4842100 0.0 1020178
21:00+13юв51354100 0.0 1020253